星链-32439 (STARLINK-32439)

导读

STARLINK-32439是美国SpaceX公司星链(Starlink)卫星互联网计划的成员,于2024年10月26日发射入轨,属于低轨通信卫星。作为星链星座扩容的一部分,它依托猎鹰九号火箭可重复使用技术部署,承担全球高速低延迟宽带互联网接入服务,填补偏远地区网络覆盖盲区,助力星链巨型低轨星座组网,目前已在轨稳定运行,进一步巩固星链在全球低轨卫星通信领域的规模优势。

基本信息
目录编号:
61665
目录名称:
STARLINK-32439
国际标识:
2024-193E
轨道中心:
EARTH
卫星名称:
星链-32439
卫星全名:
星链-32439 (STARLINK-32439)
卫星状态:
在轨 (已飞行599 天)
发射日期:
2024-10-26 UTC
国别 :
美国 (US)
星等 :
--
轨道信息
数据来源 国际轨道数据
星历时间: 2026-06-17T02:47:19+0800
1天前
查看轨道信息
半长轴: 6853.321km
偏心率: 0.000114
轨道倾角: 53.162°
近地点辐角 90.974°
升交点赤经 351.056°
平近点角 269.139°
近地点: 474.402km
远地点: 475.966km
周期: 94.105分钟
每日圈数: 15.302107
详细信息
固有亮度:
5
最大亮度:
2.5
卫星平台:
Starlink V1.0
覆盖范围:
全球
运营商:
太空探索技术公司
运营商所在国:
美国
制造商(研发单位):
太空探索技术公司
制造商所在国:
美国
使用方式:
暂无
卫星简介
Starlink 计划是 SpaceX 推出的全球卫星互联网项目,通过发射低轨道卫星,为全球尤其是偏远地区提供高速、低延迟的互联网服务。自 2019 年起,Starlink 已部署数千颗卫星,旨在缩小全球数字鸿沟,推动互联网普及。该项目还为军事、航空等行业提供通信支持,带来广泛经济效益。
2D轨道图
3D轨道图
轨道高度分析图
轨道倾角分析图
轨道综合分析图
查看轨道综合分析图